Regional Weather Roundup
Issued by NWS Little Rock, AR

Home | Current Version | Previous Version | Text Only | Print | Product List | Glossary On
Versions: 1 2 3 4 5 6 7 8 9 10 11 12 13 14 15 16 17 18 19 20 21 22 23 24 25 26 27 28 29 30 31 32 33 34 35 36 37 38 39 40 41 42 43 44 45 46 47 48 49 50
000
ASUS44 KLZK 270305
RWRLZK

WEATHER ROUNDUP FOR ARKANSAS
NATIONAL WEATHER SERVICE LITTLE ROCK AR
1000 PM CDT WED JUL 26 2017

NOTE: "FAIR" INDICATES FEW OR NO CLOUDS BELOW 12,000 FEET WITH NO
SIGNIFICANT WEATHER AND/OR OBSTRUCTIONS TO VISIBILITY.

ARZ001-003-010-029-270400-
NORTHWEST ARKANSAS

CITY           SKY/WX    TMP DP  RH WIND       PRES   REMARKS
FAYETTEVILLE   PTCLDY    76  75  97 CALM      30.02S
FORT SMITH     PTCLDY    85  73  67 S3        29.98R HX  91
HARRISON       MOCLDY    79  73  82 S3        30.03F
BENTONVILLE    PTCLDY    82  70  65 CALM      30.03R HX  86
ROGERS         PTCLDY    82  72  71 S6        30.03R HX  87
SILOAM SPGS    PTCLDY    82  70  65 S8        30.01R HX  86
HIGHFILL       PTCLDY    82  73  74 S3        30.02R HX  87
$$

ARZ004-005-016-270400-
NORTH CENTRAL ARKANSAS

CITY           SKY/WX    TMP DP  RH WIND       PRES   REMARKS
BATESVILLE     PTCLDY    84  73  70 S6        30.02S HX  91
FLIPPIN        CLOUDY    82  70  65 SE3       29.99S HX  86
MTN HOME       MOCLDY    80  72  76 S5        30.01S
$$

ARZ040-041-270400-
WEST CENTRAL ARKANSAS

CITY           SKY/WX    TMP DP  RH WIND       PRES   REMARKS
MENA           CLOUDY    79  77  94 CALM      30.05F
MOUNT IDA      CLOUDY    79  72  79 CALM      30.03R
$$

ARZ009-017-025-026-028-270400-
NORTHEAST ARKANSAS

CITY           SKY/WX    TMP DP  RH WIND       PRES   REMARKS
JONESBORO      CLOUDY    84  76  76 SW7       30.01R HX  93
WALNUT RIDGE   PTCLDY    81  73  78 S7        30.00S HX  85
BLYTHEVILLE    CLOUDY    83  78  85 S5        30.02S HX  93
$$

ARZ022-023-033-042-044-270400-
CENTRAL ARKANSAS

CITY           SKY/WX    TMP DP  RH WIND       PRES   REMARKS
LITTLE ROCK    MOCLDY    82  77  84 S6        30.03R HX  90
N LITTLE ROCK    N/A     83  74  73 SW3       30.01S HX  90
JACKSONVILLE   CLOUDY    84  76  74 S6        30.02R HX  93
CONWAY           N/A     84  73  70 S6        30.00S HX  91
SEARCY         CLOUDY    81  79  94 S3        30.04R HX  90
HOT SPRINGS    CLOUDY    85  75  72 CALM      30.04R HX  93
RUSSELLVILLE   CLEAR     79  74  84 SE3       30.00S
CLINTON        FAIR      79  77  94 CALM      30.02S
$$

ARZ036-270400-
EAST ARKANSAS

CITY           SKY/WX    TMP DP  RH WIND       PRES   REMARKS
WEST MEMPHIS   MOCLDY    79  76  90 S5        30.03R
$$

ARZ050-053-066-070-073-270400-
SOUTHWEST ARKANSAS

CITY           SKY/WX    TMP DP  RH WIND       PRES   REMARKS
ARKADELPHIA    FAIR      80  78  94 CALM      30.03R HX  88
CAMDEN         CLOUDY    81  73  78 CALM      30.03R HX  85
TEXARKANA      CLOUDY    85  71  63 S7        30.02S HX  90
EL DORADO      CLOUDY    81  77  88 CALM      30.05R HX  88
DE QUEEN       CLOUDY    80  79  96 CALM      30.00R HX  88
$$

ARZ056-057-069-270400-
SOUTHEAST ARKANSAS

CITY           SKY/WX    TMP DP  RH WIND       PRES   REMARKS
PINE BLUFF     PTCLDY    81  77  88 S3        30.04R HX  88
STUTTGART      PTCLDY    82  66  57 S7        30.04R HX  85
MONTICELLO     CLEAR     83  74  74 CALM      30.04S HX  89

$$





USA.gov is the U.S. government's official web portal to all federal, state and local government web resources and services.